Location: Krakow
(50.0212°N, 19.9423°E)
Time: 22:04:15
(UTC+02:00)

MOZHAYETS 4 - Visible Passes

Search period start: 22 April 2024 00:00
Search period end: 02 May 2024 00:00
Orbit: 654 x 670 km, 98.3° (Epoch: 22 April)

Date Brightness Start Highest point End Pass type
(mag) Time Alt. Az. Time Alt. Az. Time Alt. Az.
22 Apr 9.1 03:06:13 10° SE 03:10:29 39° ENE 03:14:46 10° N visible
22 Apr 8.6 04:43:31 10° SSW 04:47:30 28° W 04:51:30 10° NW visible
23 Apr 10.7 02:02:41 10° ENE 02:04:31 12° NE 02:06:20 10° NNE visible
23 Apr 8.0 03:36:03 10° SSE 03:40:37 72° ENE 03:45:14 10° N visible
24 Apr 10.2 02:30:59 10° ESE 02:34:21 21° ENE 02:37:44 10° NNE visible
24 Apr 7.7 04:06:20 10° S 04:10:52 61° WSW 04:15:27 10° NNW visible
25 Apr 9.3 03:00:10 10° SE 03:04:19 35° ENE 03:08:29 10° N visible
25 Apr 8.5 04:37:07 10° SSW 04:41:15 32° W 04:45:24 10° NNW visible
26 Apr 10.8 01:57:14 10° ENE 01:58:23 11° NE 01:59:32 10° NE visible
26 Apr 8.2 03:29:52 10° SSE 03:34:24 63° ENE 03:38:58 10° N visible
27 Apr 10.4 02:25:03 10° E 02:28:10 18° ENE 02:31:18 10° NNE visible
27 Apr 7.7 04:00:02 10° S 04:04:36 70° WSW 04:09:13 10° NNW visible
28 Apr 9.6 02:54:05 10° SE 02:58:05 31° ENE 03:02:07 10° N visible
28 Apr 8.3 04:30:40 10° SSW 04:34:55 37° W 04:39:12 10° NNW visible
29 Apr 8.5 03:23:38 10° SSE 03:28:07 55° ENE 03:32:36 10° N visible
30 Apr 10.5 02:19:05 10° E 02:21:55 16° ENE 02:24:44 10° NNE visible
30 Apr 7.7 03:53:40 10° SSE 03:58:15 81° WSW 04:02:52 10° NNW visible
01 May 9.8 02:47:55 10° ESE 02:51:46 27° ENE 02:55:38 10° N visible
01 May 8.1 04:24:09 10° S 04:28:31 43° W 04:32:54 10° NNW visible
